Location: Corcelles
(46.1547°N, 4.7234°E)
Time: 10:39:49
(UTC+00:00)

NPP - Pass Details

Date: 14 July 2020
Orbit: 826 x 828 km, 98.7° (Epoch: 05 August)

Event Time Altitude Azimuth Distance (km) Brightness Sun altitude
Rises 01:18:17 0° 16° (NNE) 3,377 8.5 -19.1°
Reaches altitude 10° 01:20:40 10° 19° (NNE) 2,439 7.4 -19.0°
Maximum altitude 01:26:03 67° 102° (ESE) 898 3.8 -18.6°
Enters shadow 01:28:50 29° 177° (S) 1,482 4.5 -18.4°
